• Join FlightAware (Why Join?)
  • Login
  • US Flag 
04:34AM EST


 

Airport Tracker/Info


-or-


 

Live Flight TrackerFlight Track Log ✈ ASH3795 ✈ 30-Jul-2013 ✈ KORD - KBOS

Flight Track Log - Related Links

Times and Time Zones

All times are in EDT time to prevent confusion due to time zone crossing. See the ASH3795 flight status page for this flight to view local times or setup timezone preferences in your user account.

Time Position Orientation Groundspeed Altitude Reporting Facility
EDT Latitude Longitude Course Direction KTS MPH feet Rate Location/Type
08:45AM 41.9333 -87.9000 90° East 189 217 2,100  Level Chicago TRACON
08:46AM 41.9333 -87.8333 90° East 222 255 4,500 1,732 Climbing Chicago TRACON
08:46AM 41.9469 -87.7922 66° East 242 278 4,900 606 Climbing Chicago Center
08:47AM 41.9767 -87.6753 71° East 275 316 5,500 1,645 Climbing Chicago Center
08:48AM 41.9978 -87.5728 74° East 283 326 8,300 2,613 Climbing Chicago Center
08:49AM 42.0233 -87.4681 72° East 301 346 10,900 2,081 Climbing Chicago Center
08:51AM 42.0700 -87.3694 57° Northeast 325 374 12,600 1,742 Climbing Chicago Center
08:52AM 42.0953 -87.2408 75° East 354 407 14,500 1,887 Climbing Chicago Center
08:53AM 42.1247 -87.0839 76° East 370 426 16,500 1,645 Climbing Chicago Center
08:54AM 42.1481 -86.9675 75° East 386 444 17,900 1,694 Climbing Chicago Center
08:55AM 42.1828 -86.7950 75° East 398 458 20,000 1,645 Climbing Chicago Center
08:56AM 42.2114 -86.6444 76° East 411 473 21,300 1,403 Climbing Chicago Center
08:57AM 42.2408 -86.4933 75° East 416 479 22,900 1,355 Climbing Chicago Center
08:58AM 42.2700 -86.3367 76° East 428 493 24,100 1,296 Climbing Chicago Center
08:59AM 42.3044 -86.1556 76° East 439 505 25,600 1,742 Climbing Chicago Center
09:00AM 42.3122 -85.9908 86° East 449 517 27,700 1,694 Climbing Chicago Center
09:01AM 42.3122 -85.8331 90° East 427 491 29,100 672 Climbing Chicago Center
09:02AM 42.3083 -85.6642 92° East 447 514 29,100 387 Level Chicago Center
09:03AM 42.2867 -85.4864 99° East 483 556 29,900 919 Climbing Chicago Center
09:04AM 42.2525 -85.2736 102° East 487 560 31,000 1,065 Climbing Chicago Center
09:05AM 42.2178 -85.0986 105° East 486 559 32,100 1,065 Climbing Chicago Center
09:06AM 42.1867 -84.9244 103° East 481 554 33,200 871 Climbing Chicago Center
09:07AM 42.2056 -84.7483 82° East 475 547 33,900 677 Climbing Chicago Center
09:08AM 42.2464 -84.5811 72° East 473 544 34,600 726 Climbing Chicago Center
09:09AM 42.2672 -84.3639 83° East 487 560 35,400 581 Climbing Chicago Center
09:10AM 42.2806 -84.1953 84° East 483 556 35,800 443 Climbing Cleveland Center
09:11AM 42.2964 -84.0136 83° East 488 562 36,300 500 Climbing Cleveland Center
09:12AM 42.3144 -83.8236 83° East 488 562 36,800 350 Climbing Cleveland Center
09:13AM 42.3342 -83.6392 82° East 494 568 37,000 100 Climbing Cleveland Center
09:14AM 42.3456 -83.4347 86° East 522 601 37,000  Level Cleveland Center
09:15AM 42.3650 -83.2389 82° East 533 613 37,000 250 Level Cleveland Center
09:16AM 42.3825 -83.0147 84° East 539 620 37,500 600 Climbing Cleveland Center
09:17AM 42.3967 -82.8211 84° East 534 615 38,200 750 Climbing Cleveland Center
09:18AM 42.4108 -82.6278 84° East 534 615 39,000 400 Climbing Cleveland Center
09:19AM 42.4244 -82.4369 84° East 517 595 39,000  Level Cleveland Center
09:20AM 42.4397 -82.2489 84° East 511 588 39,000  Level Cleveland Center
09:21AM 42.4550 -82.0606 84° East 511 588 39,000  Level Cleveland Center
09:22AM 42.4675 -81.8694 85° East 511 588 39,000  Level Cleveland Center
09:23AM 42.4819 -81.6811 84° East 498 573 39,000  Level Cleveland Center
09:24AM 42.4961 -81.4900 84° East 503 579 39,000  Level Cleveland Center
09:25AM 42.5081 -81.3069 85° East 498 573 39,000  Level Cleveland Center
09:26AM 42.5194 -81.1325 85° East 503 579 39,000  Level Cleveland Center
09:27AM 42.5283 -80.9439 86° East 505 581 39,000  Level Cleveland Center
09:28AM 42.5414 -80.7550 85° East 512 589 39,000  Level Cleveland Center
09:29AM 42.5539 -80.5664 85° East 507 583 39,000  Level Cleveland Center
09:30AM 42.5642 -80.3744 86° East 507 583 39,000  Level Cleveland Center
09:31AM 42.5761 -80.1800 85° East 507 583 39,000  Level Cleveland Center
09:32AM 42.5836 -79.9683 87° East 507 583 39,000  Level Cleveland Center
09:33AM 42.5950 -79.7739 85° East 517 595 39,000  Level Cleveland Center
09:34AM 42.6039 -79.5875 86° East 512 589 39,000  Level Cleveland Center
09:35AM 42.6128 -79.4125 86° East 512 589 39,000  Level Cleveland Center
09:36AM 42.6231 -79.2261 86° East 506 582 39,000  Level Cleveland Center
09:37AM 42.6331 -79.0225 86° East 499 574 39,000  Level Cleveland Center
09:38AM 42.6408 -78.8361 87° East 499 574 39,000  Level Cleveland Center
09:39AM 42.6483 -78.6494 87° East 499 574 39,000  Level Cleveland Center
09:40AM 42.6558 -78.4883 86° East 494 568 39,000  Level Cleveland Center
09:41AM 42.6628 -78.3075 87° East 483 556 39,000  Level Cleveland Center
09:42AM 42.6694 -78.1208 87° East 483 556 39,000  Level Cleveland Center
09:43AM 42.6758 -77.9342 87° East 483 556 39,000 -50 Level Cleveland Center
09:44AM 42.6817 -77.7419 88° East 477 549 38,900  Descending Cleveland Center
09:46AM 42.6947 -77.3961 87° East 487 560 39,000 34 Climbing Boston Center
09:47AM 42.7025 -77.2100 87° East 487 560 39,000  Level Boston Center
09:48AM 42.7081 -77.0267 88° East 487 560 39,000  Level Boston Center
09:49AM 42.7108 -76.8489 89° East 479 551 39,000  Level Boston Center
09:50AM 42.7158 -76.6653 88° East 474 545 39,000 -50 Level Boston Center
09:51AM 42.7197 -76.5044 88° East 474 545 38,900  Descending Boston Center
09:52AM 42.7217 -76.3236 89° East 474 545 39,000  Climbing Boston Center
09:53AM 42.7236 -76.1400 89° East 479 551 38,900 -50 Descending Boston Center
09:54AM 42.7294 -75.9622 87° East 474 545 38,900  Level Boston Center
09:55AM 42.7308 -75.7728 89° East 479 551 38,900  Level Boston Center
09:56AM 42.7339 -75.5922 89° East 479 551 38,900  Level Boston Center
09:57AM 42.7369 -75.4083 89° East 474 545 38,900  Level Boston Center
09:58AM 42.7394 -75.2275 89° East 480 552 38,900  Level Boston Center
09:59AM 42.7414 -75.0467 89° East 480 552 38,900  Level Boston Center
10:00AM 42.7417 -74.8461 90° East 482 555 38,900  Level Boston Center
10:01AM 42.7433 -74.6650 89° East 477 549 38,900  Level Boston Center
10:02AM 42.7447 -74.4869 89° East 477 549 38,900  Level Boston Center
10:03AM 42.7456 -74.3089 90° East 477 549 38,900 50 Level Boston Center
10:04AM 42.7464 -74.1253 90° East 477 549 39,000  Climbing Boston Center
10:05AM 42.7469 -73.9442 90° East 477 549 38,900 -50 Descending Boston Center
10:06AM 42.7428 -73.7631 92° East 477 549 38,900 50 Level Boston Center
10:07AM 42.7258 -73.6017 98° East 482 555 39,000 -102 Climbing Boston Center
10:08AM 42.7047 -73.4119 99° East 482 555 38,700 -942 Descending Boston Center
10:09AM 42.6872 -73.2422 98° East 491 565 37,100 -1,574 Descending Boston Center
10:10AM 42.6675 -73.0697 99° East 511 588 35,500 -1,678 Descending Boston Center
10:11AM 42.6456 -72.8522 98° East 526 605 33,800 -1,846 Descending Boston Center
10:12AM 42.6231 -72.6658 99° East 514 592 31,900 -2,083 Descending Boston Center
10:13AM 42.6067 -72.4794 97° East 500 575 29,600 -2,926 Descending Boston Center
10:14AM 42.5753 -72.2850 102° East 509 586 26,000 -3,917 Descending Boston Center
10:15AM 42.5519 -72.1161 101° East 479 551 21,700 -4,165 Descending Boston Center
10:16AM 42.5325 -71.9189 98° East 479 551 17,600 -3,763 Descending Boston Center
10:17AM 42.5192 -71.7642 97° East 468 539 14,300 -3,657 Descending Boston Center
10:18AM 42.5000 -71.6167 100° East 420 483 11,200 -1,907 Descending KA90
10:19AM 42.5000 -71.4833 90° East 343 395 10,900 -1,000 Descending KA90
10:20AM 42.5000 -71.3667 90° East 312 359 9,200 -1,650 Descending KA90
10:21AM 42.4833 -71.2500 101° East 301 346 7,600 -1,100 Descending KA90
10:22AM 42.4833 -71.1500 90° East 266 306 7,000 -800 Descending KA90
10:23AM 42.4833 -71.0500 90° East 247 284 6,000 -800 Descending KA90
10:24AM 42.4333 -70.9833 135° Southeast 238 274 5,400 -700 Descending KA90
10:25AM 42.4000 -70.9167 124° Southeast 239 275 4,600 -700 Descending KA90
10:26AM 42.3500 -70.8667 144° Southeast 242 278 4,000 -371 Descending KA90
10:26AM 42.3222 -70.8339 139° Southeast 240 276 4,000 -55 Level Boston Center
10:28AM 42.2756 -70.7761 137° Southeast 229 264 3,900 -500 Descending Boston Center
10:29AM 42.2186 -70.7300 149° Southeast 214 246 2,900 -451 Descending Boston Center
10:30AM 42.2156 -70.7917 266° West 112 129 2,900  Level Boston Center
10:31AM 42.2519 -70.8581 307° West 110 127 2,900 -484 Level Boston Center
10:32AM 42.2833 -70.9000 315° West 165 190 1,900 -872 Descending KA90
10:33AM 42.3167 -70.9333 324° Northwest 159 183 1,200 -750 Descending KA90
10:34AM 42.3500 -70.9833 312° West 131 151 400 -727 Descending KA90
10:36AM 42.3500 -71.0000 North  Level FlightAware Approximate